Location: Horsebridge
(51.0667°N, 1.5000°W)
Time: 15:39:51
(UTC+00:00)

Daily predictions for brighter satellites

Satellite Brightness Start Highest point End
(mag) Time Altitude Azimuth Time Altitude Azimuth Time Altitude Azimuth
Cosmos 2100 Rocket 4.5 18:02:29 10° SSW 18:08:50 70° WNW 18:15:07 10° N
STARLINK-69 3.7 18:05:35 10° WSW 18:09:35 67° SSE 18:13:35 10° ENE
STARLINK-1026 3.4 18:06:22 10° SW 18:09:37 52° SSE 18:12:53 10° ENE
STARLINK-1014 3.7 18:06:42 10° SW 18:10:02 45° SSE 18:13:24 10° ENE
ATLAS 3B R/B 4.0 18:05:12 10° WNW 18:10:48 28° N 18:16:29 10° NE
STARLINK-21 3.7 18:07:05 10° WSW 18:11:05 65° SSE 18:15:05 10° ENE
STARLINK-1013 3.4 18:08:10 10° SW 18:11:26 53° SSE 18:14:42 10° ENE
Meteor 1-10 Rocket 4.5 18:06:05 10° NNW 18:11:43 77° W 18:17:15 10° S
STARLINK-45 3.6 18:08:55 10° WSW 18:12:55 71° SSE 18:16:56 10° ENE
STARLINK-1009 3.3 18:09:57 10° SW 18:13:14 55° SSE 18:16:31 10° ENE
Cosmos 1833 4.4 18:08:35 10° NNW 18:14:18 56° NE 18:19:56 10° SE
STARLINK-70 3.6 18:10:30 10° WSW 18:14:31 70° SSE 18:18:32 10° ENE
STARLINK-1015 3.3 18:11:46 10° SW 18:15:03 56° SSE 18:18:21 10° ENE
CZ-2D R/B 3.5 18:11:36 10° SE 18:15:21 48° ENE 18:19:07 10° N
STARLINK-76 3.6 18:12:03 10° WSW 18:16:03 69° SSE 18:20:03 10° ENE
STARLINK-23 3.6 18:13:41 10° WSW 18:17:41 70° SSE 18:21:43 10° ENE
STARLINK-32 3.6 18:15:21 10° WSW 18:19:22 72° SSE 18:23:23 10° ENE
SJ 16-02 2.6 18:16:06 10° N 18:19:40 23° NE 18:23:14 10° ESE
STARLINK-40 3.6 18:16:59 10° WSW 18:20:59 73° SSE 18:24:58 10° ENE
Orbus 7S? 4.2 18:12:23 10° SW 18:21:13 76° SSE 18:24:58 10° ENE
Cosmos 1862 3.3 18:18:07 10° S 18:22:06 87° WNW 18:26:06 10° N
STARLINK-44 3.6 18:18:39 10° WSW 18:22:40 74° SSE 18:26:35 11° ENE
YAOGAN 6 3.9 18:19:55 10° S 18:23:16 43° W 18:26:38 10° NNW
FREGAT/IRIS 4.4 18:23:34 11° ENE 18:24:12 12° ENE 18:25:23 10° NE
STARLINK-48 3.7 18:20:29 10° W 18:24:22 66° N 18:28:00 12° ENE
STARLINK-37 3.6 18:20:23 10° WSW 18:24:24 77° SSE 18:28:16 11° ENE
STARLINK-61 3.5 18:21:11 10° WSW 18:25:06 83° NNW 18:28:49 11° ENE
H-2A R/B 3.0 18:21:16 10° ESE 18:25:49 28° ENE 18:30:25 10° N
STARLINK-36 3.6 18:21:56 10° WSW 18:25:57 77° SSE 18:29:45 12° ENE
ARGOS 4.2 18:22:49 10° ESE 18:27:13 26° ENE 18:31:38 10° N
STARLINK-68 3.5 18:23:47 10° WSW 18:27:48 81° SSE 18:31:32 12° ENE
STARLINK-63 3.5 18:25:20 10° WSW 18:29:21 81° SSE 18:33:01 12° ENE
Cosmos 1725 Rocket 4.1 18:23:15 10° S 18:29:26 89° W 18:35:42 10° N
CSL-04 Rocket 3.7 18:24:40 10° SSE 18:30:11 78° ENE 18:35:40 10° NNW
BREEZE-M DEB (TANK) 3.5 18:28:28 10° W 18:30:54 47° SSW 18:36:00 10° ESE
STARLINK-35 3.5 18:26:54 10° WSW 18:30:55 80° SSE 18:34:31 13° ENE
STARLINK-51 3.5 18:28:33 10° WSW 18:32:34 82° SSE 18:36:06 13° ENE
Cosmos 1346 Rocket 3.4 18:29:00 10° SSE 18:32:36 34° E 18:36:12 10° NNE
STARLINK-43 3.4 18:29:52 10° WNW 18:33:35 71° NNE 18:36:38 14° E
STARLINK-1023 2.9 18:30:55 10° WSW 18:34:06 73° SSE 18:36:38 15° ENE
STARLINK-30 3.5 18:30:12 10° WSW 18:34:14 83° SSE 18:37:42 14° ENE
STARLINK-1033 4.4 18:31:16 10° SSW 18:35:04 36° SE 18:38:08 14° E
STARLINK-72 3.5 18:31:51 10° WSW 18:35:53 84° SSE 18:39:17 14° ENE
YAOGAN 1 2.7 18:32:16 10° SSE 18:36:36 84° WSW 18:40:58 10° NNW
USA 186 3.4 18:38:08 12° NE 18:38:08 12° NE 18:38:48 10° NNE
STARLINK-50 3.5 18:33:29 10° WSW 18:37:31 85° SSE 18:40:51 15° ENE
Cosmos 44 Rocket 3.7 18:34:38 10° NNW 18:39:08 41° NE 18:42:58 14° ESE
STARLINK-59 3.5 18:35:16 10° WSW 18:39:18 88° SSE 18:42:34 15° ENE
Cosmos 1633 Rocket 3.0 18:35:52 10° S 18:40:12 88° W 18:44:35 10° N
STARLINK-56 3.5 18:36:47 10° WSW 18:40:49 87° SSE 18:44:02 16° ENE
STARLINK-1035 4.2 18:38:10 10° SW 18:42:12 44° SSE 18:45:13 17° E
STARLINK-73 3.5 18:38:28 10° WSW 18:42:30 88° SSE 18:45:39 16° ENE
SKYMED 2 3.9 18:39:16 10° N 18:43:36 70° WNW 18:47:55 10° SSW
STARLINK-38 3.5 18:40:08 10° WSW 18:44:10 89° S 18:47:15 17° ENE
Cosmos 2297 Rocket 3.7 18:40:44 10° NNW 18:44:56 21° NE 18:47:51 14° ENE
STARLINK-1024 4.2 18:41:07 10° SW 18:45:00 41° SSE 18:47:44 18° E
CRYOSAT 2 4.3 18:40:25 10° SSE 18:45:16 68° E 18:50:10 10° N
STARLINK-65 3.5 18:41:46 10° WSW 18:45:48 90° NNW 18:48:49 17° ENE
STARLINK-53 3.5 18:43:29 10° WSW 18:47:32 87° NNW 18:50:29 18° ENE
NOSS 3-1 (C) 3.4 18:41:56 10° SW 18:47:35 86° NW 18:54:15 10° NE
Aureole 2 Rocket 1.9 18:45:04 10° SSW 18:47:42 72° WNW 18:50:26 10° NNE
Cosmos 1666 Rocket 4.1 18:43:27 10° SSW 18:47:54 63° WNW 18:52:23 10° N
CSL-04 Debris 4.4 18:43:00 10° SSE 18:48:28 77° WSW 18:54:00 10° NNW
Cosmos 1933 Rocket 3.7 18:44:15 10° SSE 18:48:29 48° E 18:52:43 10° NNE
Cosmos 2285 Rocket 4.1 18:42:47 10° NNW 18:49:12 85° WSW 18:55:36 10° SSE
STARLINK-33 3.2 18:47:51 10° W 18:51:07 65° N 18:53:06 21° ENE
STARLINK-1007 2.9 18:49:20 10° WSW 18:52:35 89° S 18:54:28 23° ENE
STARLINK-1027 4.0 18:48:39 10° SW 18:52:47 52° SSE 18:55:28 20° E
STARLINK-55 3.2 18:49:52 10° W 18:53:08 64° N 18:55:01 22° ENE
Meteor 1-20 Rocket 4.5 18:47:59 10° SSE 18:53:09 43° E 18:58:24 10° NNE
STARLINK-66 3.2 18:49:56 10° W 18:53:12 64° N 18:55:06 22° ENE
Cosmos 2278 Rocket 4.4 18:49:08 10° W 18:53:13 20° NW 18:57:21 10° NNE
STARLINK-28 3.2 18:51:31 10° W 18:54:47 63° N 18:56:36 23° ENE
USA 116 3.8 18:50:52 10° NNE 18:54:50 87° ESE 18:59:19 10° SSW
STARLINK-1032 4.0 18:50:56 10° SW 18:54:54 47° SSE 18:57:17 22° E
STARLINK-80 3.5 18:51:05 10° WNW 18:54:54 66° N 18:57:10 23° E
Cosmos 405 3.4 18:51:47 10° N 18:55:11 41° ENE 18:58:22 11° SE
STARLINK-58 3.3 18:52:31 10° W 18:56:04 74° NNW 18:58:11 23° ENE
COSMOS 2487 2.3 18:52:38 10° NNW 18:56:05 64° ENE 18:59:29 10° SSE
ADEOS Rocket 3.6 18:48:53 10° NNE 18:56:40 68° ESE 19:04:19 10° S
STARLINK-62 3.3 18:54:13 10° W 18:57:46 73° NNW 18:59:48 24° ENE
Cosmos 1943 Rocket 2.4 18:52:13 10° SW 18:57:47 75° WNW 19:03:21 10° NNE
STARLINK-34 3.3 18:55:50 10° W 18:59:23 72° NNW 19:01:22 24° ENE
STARLINK-1011 3.9 18:55:51 10° SW 18:59:51 50° SSE 19:02:03 24° E
MOS 1 4.4 18:54:54 10° SE 19:00:22 53° ENE 19:05:52 10° N
Timation 2 Rocket 4.3 18:53:55 10° NNW 19:00:44 61° NE 19:07:09 12° SE
Okean 1 3.6 18:57:10 10° N 19:01:01 42° ENE 19:04:38 11° SE
CZ-2C R/B 3.6 18:55:41 10° SE 19:01:09 44° ENE 19:06:29 10° N
Lacrosse 5 rocket 2.4 18:56:58 10° WNW 19:01:14 39° N 19:04:00 20° ENE
STARLINK-42 3.2 18:58:31 10° W 19:01:45 63° N 19:03:16 28° ENE
Cosmos 2227 Rocket 3.5 18:59:15 10° NNW 19:03:43 23° NE 19:05:52 19° ENE
Genesis I 4.4 19:00:56 10° NNW 19:04:19 27° NNE 19:05:28 23° ENE
STARLINK-1036 3.8 19:00:48 10° SW 19:04:50 53° SSE 19:06:51 27° E
BREEZE-M DEB (TANK) 2.7 19:02:31 10° W 19:04:58 61° S 19:06:06 30° ESE
Cosmos 1340 2.6 19:01:24 10° SSW 19:05:10 86° W 19:08:58 10° NNE
STARLINK 1040 2.7 19:04:02 10° W 19:06:49 71° NNW 19:07:42 39° ENE
STARLINK-1010 2.9 19:04:03 10° WSW 19:07:20 81° NNW 19:08:41 33° ENE
HJ-1C 3.3 19:04:44 10° SSE 19:08:03 85° WSW 19:11:22 10° NNW
SPOT 3 Rocket 4.1 19:05:25 18° ESE 19:08:41 37° ENE 19:13:28 10° N
STARLINK-1044 3.8 19:05:44 10° SW 19:09:47 56° SSE 19:11:37 29° E
STARLINK-1031 3.6 19:06:59 10° SW 19:10:59 61° SSE 19:12:45 31° E
NOSS 2 (A) 4.1 19:09:15 10° NW 19:11:53 57° NE 19:11:57 56° NE
Cosmos 1898 Rocket 3.4 19:07:08 10° NNW 19:12:19 68° ENE 19:17:01 13° SE
Lacrosse 4 Rocket 3.7 19:09:16 10° W 19:12:43 23° NW 19:16:12 10° NNE
Gbstr 26 Del rocket 4.1 19:10:02 10° SSW 19:13:35 28° SE 19:14:28 26° ESE
STARLINK-1029 2.8 19:11:57 10° WSW 19:15:09 85° NNW 19:16:03 43° ENE
Cosmos 1939 Rocket 4.4 19:12:31 10° SSW 19:16:24 39° W 19:20:20 10° NNW
Cosmos 2233 Rocket 4.5 19:10:55 10° SSW 19:17:01 64° WNW 19:23:13 10° N
STARLINK-24 3.6 19:13:20 10° W 19:17:22 73° N 19:19:06 32° ENE
STARLINK-1037 3.6 19:15:34 10° SW 19:19:39 63° SSE 19:21:08 36° E
Resurs 1-3 4.4 19:19:42 30° ENE 19:20:03 30° ENE 19:23:53 10° N
NOSS 2-3 (E) 3.7 19:16:57 10° SW 19:21:23 88° SE 19:25:51 15° NE
SJ-11-01 4.2 19:16:42 10° SSE 19:21:24 88° W 19:26:06 10° NNW
Cosmos 1092 Rocket 4.5 19:15:33 10° N 19:21:29 39° ENE 19:24:43 24° ESE
CZ-4 R/B 4.0 19:18:19 10° SSW 19:21:45 24° W 19:25:11 10° NW
STARLINK-1016 3.1 19:19:31 10° W 19:22:48 72° NNW 19:23:34 48° ENE
STARLINK-1008 3.1 19:19:55 10° W 19:23:15 72° NNW 19:24:02 48° ENE
STARLINK-1059 3.6 19:20:35 10° WSW 19:24:41 66° SSE 19:25:59 41° E
USA 234 3.6 19:21:54 23° ENE 19:25:57 56° N 19:32:19 10° WNW
STARLINK-1025 3.1 19:23:17 10° W 19:26:36 70° N 19:27:13 52° NE
STARLINK-81 3.6 19:23:00 10° W 19:27:02 72° N 19:28:23 39° ENE
STARLINK-75 3.3 19:24:17 10° W 19:27:40 60° N 19:28:18 48° NE
Cosmos 1763 Rocket 3.9 19:23:08 10° S 19:27:59 40° ESE 19:32:55 10° NE
Cosmos 2219 3.8 19:22:46 10° NNW 19:28:10 39° NE 19:29:58 32° E
STARLINK-1017 3.1 19:24:58 10° W 19:28:16 70° NNW 19:28:50 54° NE
Cosmos 1470 Rocket 4.4 19:24:01 10° SSW 19:28:17 53° WNW 19:32:38 10° N
STARLINK-22 3.3 19:25:11 10° W 19:28:31 61° N 19:29:06 50° NE
Cosmos 1656 Rocket 3.5 19:23:01 10° SSW 19:28:33 79° ESE 19:34:11 10° NNE
Meteor 2-4 Rocket 4.0 19:23:08 10° N 19:28:52 50° ENE 19:32:13 24° SE
STARLINK-54 3.6 19:24:53 10° W 19:28:54 70° N 19:30:10 41° ENE
Meteor 1-19 Rocket 4.2 19:23:07 10° N 19:28:59 72° ENE 19:34:38 10° SSE
STARLINK-1057 3.6 19:25:34 10° WSW 19:29:41 70° SSE 19:30:47 46° E
STARLINK-41 3.3 19:26:39 10° W 19:29:59 60° N 19:30:31 51° NE
NOSS 3-2 (A) 4.2 19:23:06 10° NW 19:30:01 51° NNE 19:34:00 29° E
STARLINK-77 3.6 19:26:20 10° W 19:30:21 71° N 19:31:34 42° ENE
NOSS 3-2 (C) 4.5 19:24:55 10° NW 19:31:36 43° NNE 19:35:19 27° E
STARLINK-25 3.6 19:28:00 10° W 19:32:01 70° N 19:33:10 44° ENE
STARLINK-1048 3.1 19:30:04 10° W 19:33:22 68° N 19:33:44 60° NE
STARLINK-71 3.7 19:29:53 10° W 19:33:54 68° N 19:34:58 45° ENE
STARLINK-1034 3.5 19:30:31 10° WSW 19:34:38 73° SSE 19:35:33 51° E
STARLINK-1049 3.1 19:31:47 10° W 19:35:05 67° N 19:35:23 62° NNE
STARLINK-79 3.6 19:31:18 10° W 19:35:19 69° N 19:36:20 47° ENE
Cosmos 858 Rocket 4.4 19:30:46 10° NNW 19:36:03 78° ENE 19:39:02 26° SSE
NOSS 2-3 (D) 3.8 19:32:00 10° SW 19:36:26 80° NW 19:40:15 19° NE
STARLINK-1051 3.1 19:33:32 10° W 19:36:50 67° N 19:37:05 63° NNE
STARLINK-78 3.6 19:32:59 10° W 19:37:01 69° N 19:37:57 49° NE
STARLINK-1028 3.1 19:33:57 10° W 19:37:16 66° N 19:37:29 63° NNE
Meteor 1-25 Rocket 4.2 19:31:56 10° SSW 19:37:38 88° WNW 19:43:17 10° NNE
STARLINK-64 3.4 19:34:36 10° W 19:38:11 62° N 19:38:37 56° NE
Resurs 01 Rocket 2.5 19:38:51 31° NE 19:38:51 31° NE 19:42:13 10° N
Cosmos 1072 Rocket 4.5 19:32:00 10° S 19:38:23 87° E 19:44:44 10° N
STARLINK-57 3.7 19:34:45 10° W 19:38:46 68° N 19:39:38 50° NE
STARLINK-1021 3.1 19:35:43 10° W 19:39:03 66° N 19:39:12 64° NNE
USA 229 DEB 4.3 19:32:33 10° WSW 19:39:04 55° NW 19:45:56 10° NE
USA 229 4.3 19:32:39 10° WSW 19:39:09 55° NW 19:46:00 10° NE
STARLINK-1068 3.5 19:35:28 10° WSW 19:39:36 77° SSE 19:40:20 58° E
STARLINK-26 3.1 19:36:16 10° WNW 19:39:44 68° N 19:39:52 67° NNE
STARLINK-49 3.6 19:36:17 10° W 19:40:19 68° N 19:41:07 52° NE
STARLINK-1019 3.1 19:37:31 10° W 19:40:50 65° N 19:40:55 65° N
STARLINK-27 3.7 19:37:57 10° W 19:41:58 68° N 19:42:42 53° NE
Cosmos 1602 3.5 19:38:11 10° S 19:42:03 76° E 19:45:56 10° NNE
STARLINK-1012 3.2 19:39:19 10° W 19:42:39 65° N 19:42:40 65° N
STARLINK-74 3.7 19:39:36 10° W 19:43:37 67° N 19:44:17 55° NE
Ariane Rocket 3.7 19:40:15 10° S 19:45:16 56° W 19:50:19 10° NNW
STARLINK-39 3.6 19:41:16 10° W 19:45:17 67° N 19:45:53 57° NE
Okean 1-7 3.5 19:41:08 10° NNW 19:45:24 62° W 19:49:41 10° S
NOSS 3-1 (A) 3.8 19:40:17 10° WSW 19:45:58 64° NW 19:52:11 12° NE
STARLINK-1026 3.3 19:42:56 10° W 19:46:07 63° NNW 19:46:07 63° NNW
STARLINK-31 3.6 19:42:56 10° W 19:46:57 67° N 19:47:29 58° NE
STARLINK-1014 3.3 19:43:31 10° W 19:46:59 68° NNW 19:46:59 68° NNW
Cosmos 2263 Rocket 4.2 19:44:32 10° N 19:47:10 13° NNE 19:48:31 12° NE
SL-08 RB Rocket 3.5 19:45:57 45° SE 19:47:15 71° ENE 19:51:44 10° N
SJ-6B 2.6 19:46:43 51° S 19:47:36 86° WSW 19:51:25 10° NNW
Cosmos 2369 Rocket 3.2 19:42:33 10° WSW 19:47:59 45° NW 19:53:29 10° NNE
STARLINK-1013 3.4 19:44:45 10° W 19:47:53 62° NNW 19:47:53 62° NNW
STARLINK-69 3.6 19:44:47 10° W 19:48:48 66° N 19:49:15 60° NE
Cosmos 1703 Rocket 4.5 19:44:54 10° NNW 19:49:14 50° W 19:53:32 10° SSW
Lacrosse 5 3.2 19:44:52 10° S 19:47:37 25° SSE 19:47:37 25° SSE
Cosmos 1513 Rocket 4.4 19:43:14 10° S 19:49:19 86° W 19:55:34 10° N
STARLINK-1060 3.4 19:45:24 10° WSW 19:49:33 83° SSE 19:49:53 74° E
STARLINK-1009 3.4 19:46:34 10° W 19:49:38 60° NW 19:49:38 60° NW
STARLINK-21 3.6 19:46:16 10° W 19:50:17 66° N 19:50:40 61° NNE
SL-24 DEB 4.1 19:47:01 19° S 19:50:27 82° E 19:55:08 10° N
CENTAUR R/B 3.5 19:44:14 10° NW 19:51:29 46° NNE 19:54:45 33° ENE
STARLINK-1015 3.5 19:48:24 10° W 19:51:24 58° NW 19:51:24 58° NW
MetOp-A 4.1 19:50:10 41° SE 19:51:57 65° ENE 19:57:16 10° N
STARLINK-45 3.6 19:48:08 10° W 19:52:09 65° N 19:52:27 62° NNE
ARGOS Delta rocket 3.5 19:51:19 43° SSE 19:52:44 84° ENE 19:57:15 10° N
STARLINK-70 3.6 19:49:43 10° W 19:53:44 65° N 19:53:59 63° NNE
FREGAT/IRIS 4.1 19:54:57 33° WNW 19:54:57 33° WNW 19:57:05 10° NNW
STARLINK-1030 3.4 19:50:25 10° WSW 19:54:34 87° SSE 19:54:42 83° E
STARLINK-76 3.6 19:51:15 10° W 19:55:16 66° N 19:55:27 64° NNE
Cosmos 990 Rocket 4.5 19:51:15 10° NNW 19:56:17 57° WSW 20:00:11 17° S
STARLINK-23 3.6 19:52:54 10° W 19:56:55 65° N 19:57:02 65° N
Cosmos 192 4.2 19:52:17 10° SSW 19:57:11 80° ESE 20:01:10 16° NNE
Meteor 1-13 Rocket 4.3 19:52:12 10° N 19:58:03 59° ENE 19:59:12 50° ESE
SJ 16-02 2.0 19:54:16 10° NNW 19:58:34 53° WSW 20:00:55 25° S
STARLINK-32 3.7 19:54:34 10° W 19:58:36 65° N 19:58:38 65° N
STARLINK-1020 3.5 19:55:22 10° WSW 19:59:27 87° WSW 19:59:27 87° WSW
STARLINK-40 3.7 19:56:13 10° W 20:00:13 65° N 20:00:13 65° N
Cosmos 1869 Rocket 3.5 19:56:14 10° SSW 20:00:38 84° W 20:05:02 10° N
STARLINK-44 3.7 19:57:54 10° W 20:01:49 65° NNW 20:01:49 65° NNW
STARLINK-1047 3.6 19:57:53 10° WSW 20:01:57 84° W 20:01:57 84° W
STARLINK-48 3.6 19:59:17 10° WNW 20:02:47 69° NW 20:02:47 69° NW
ATLAS 3B R/B 3.5 19:57:14 10° NW 20:03:20 36° NNE 20:05:09 31° NE
STARLINK-37 3.8 19:59:39 10° W 20:03:30 64° NNW 20:03:30 64° NNW
STARLINK-61 3.8 20:00:09 10° WNW 20:03:42 62° NNW 20:03:42 62° NNW
STARLINK-1052 3.6 20:00:22 10° WSW 20:04:15 78° W 20:04:15 78° W
Cosmos 1627 Rocket 4.4 19:58:44 10° N 20:04:53 59° ENE 20:05:55 52° ESE
H-2A R/B 2.7 19:59:37 10° S 20:04:55 57° W 20:10:19 10° NNW
STARLINK-36 3.8 20:01:12 10° W 20:04:59 63° NNW 20:04:59 63° NNW
Cosmos 1937 Rocket 3.8 20:00:55 10° NNW 20:06:08 65° WSW 20:08:35 31° S
STARLINK-68 3.9 20:03:04 10° W 20:06:46 62° NNW 20:06:46 62° NNW
ARGOS 3.5 20:01:43 10° S 20:07:05 63° WSW 20:12:31 10° NNW
USA 186 4.3 20:09:35 15° NW 20:09:35 15° NW 20:10:14 10° NW
STARLINK-63 3.9 20:04:37 10° W 20:08:15 60° NW 20:08:15 60° NW
STARLINK-35 4.0 20:06:11 10° W 20:09:45 59° NW 20:09:45 59° NW
STARLINK-43 4.5 20:07:52 10° WNW 20:10:45 39° WSW 20:10:45 39° WSW
STARLINK-51 4.0 20:07:51 10° W 20:11:21 57° NW 20:11:21 57° NW
STARLINK-30 4.1 20:09:31 10° W 20:12:56 56° NW 20:12:56 56° NW
STARLINK-1033 4.0 20:10:18 10° WSW 20:13:47 61° W 20:13:47 61° W
STARLINK-72 4.2 20:11:09 10° W 20:14:31 54° NW 20:14:31 54° NW
STARLINK-50 4.2 20:12:48 10° W 20:16:05 52° NW 20:16:05 52° NW
STARLINK-59 4.3 20:14:35 10° W 20:17:48 51° NW 20:17:48 51° NW
STARLINK-56 4.4 20:16:06 10° W 20:19:16 49° NW 20:19:16 49° NW
Cosmos 44 Rocket 4.2 20:16:14 10° NW 20:20:42 41° WSW 20:21:43 36° SSW
STARLINK-73 4.4 20:17:48 10° W 20:20:53 48° WNW 20:20:53 48° WNW
STARLINK-1035 4.3 20:17:51 10° W 20:21:18 56° W 20:21:18 56° W
STARLINK-1024 4.5 20:20:18 10° W 20:23:24 48° W 20:23:24 48° W
Cosmos 2026 Rocket 3.8 20:22:48 10° N 20:29:04 80° ENE 20:29:35 74° SE
USA 238 DEB 3.7 20:22:12 10° NW 20:29:23 83° NE 20:30:43 63° ESE
USA 238 3.7 20:22:18 10° NW 20:29:28 83° NE 20:30:47 63° ESE
Cosmos 2297 Rocket 2.2 20:24:19 10° NNW 20:29:41 70° NNE 20:29:41 70° NNE
Cosmos 2221 Rocket 4.4 20:29:56 10° NNW 20:34:19 49° W 20:34:29 49° WSW
Cosmos 372 Rocket 4.2 20:34:43 10° NNW 20:39:32 70° WNW 20:39:32 70° WNW
Lacrosse 5 rocket 2.6 20:36:23 10° WNW 20:39:38 44° NW 20:39:38 44° NW
Cosmos 1943 Rocket 4.5 20:38:24 10° W 20:42:30 20° NW 20:46:36 10° NNE
Cosmos 2227 Rocket 2.4 20:42:54 10° NNW 20:47:42 64° NNW 20:47:42 64° NNW
Cosmos 2298 Rocket 4.4 20:44:07 10° NNW 20:48:52 62° WNW 20:48:52 62° WNW
Cosmos 2082 4.4 20:46:42 10° NNW 20:50:59 47° N 20:50:59 47° N
BREEZE-M DEB (TANK) 3.7 20:40:41 10° W 20:56:33 72° SSW 20:56:33 72° SSW
Terra 4.3 21:05:45 14° N 21:05:45 14° N 21:06:29 10° N
USA 234 3.2 21:09:15 78° NW 21:09:15 78° NW 21:15:19 10° WNW
Cosmos 2219 4.1 21:06:58 10° NW 21:11:55 46° W 21:11:55 46° W
Cosmos 1634 Rocket 4.3 21:13:48 63° NW 21:13:48 63° NW 21:19:37 10° N
Resurs 01 Rocket 3.7 21:16:25 25° NW 21:16:25 25° NW 21:18:46 10° NNW
NOSS 3-2 (A) 4.2 21:14:00 10° NW 21:21:19 64° SW 21:21:25 64° SW
NOSS 3-2 (C) 4.0 21:15:52 10° NW 21:22:47 78° W 21:22:47 78° W
Cosmos 2263 Rocket 4.0 21:27:41 10° NNW 21:30:13 23° N 21:30:13 23° N
CZ-2C R/B 4.4 21:31:35 10° N 21:34:11 26° N 21:34:11 26° N
CENTAUR R/B 3.2 21:35:01 10° NW 21:41:57 70° WNW 21:41:57 70° WNW
ATLAS 3B R/B 3.6 21:48:04 10° NW 21:52:24 44° NW 21:52:24 44° NW
Cosmos 2297 Rocket 4.5 22:09:11 10° NW 22:11:31 19° WNW 22:11:31 19° WNW
